Simultaneous Nadir Overpasses (SNOs) Predictions

Prediction of SNOs between METOP-B and TERRA Satellite Orbit:

Table of predicted SNOs for the next 14.0 days since TLE Epoch: 10/17/2016
Index Date (METOP-B) Time (METOP-B) Lat,Lon (METOP-B) SZA (METOP-B ) Date (TERRA) Time (TERRA) Lat,Lon (TERRA) SZA (TERRA ) Distance(km) Time Diff (sec)
1 10/19/2016 09:33:01 81.27, 83.01 94.51 10/19/2016 09:34:01 81.28, 83.18 94.56 2.90 60
2 10/19/2016 10:23:40 -81.28,-109.06 85.41 10/19/2016 10:23:27 -81.29,-108.88 85.39 3.32 13
3 10/22/2016 05:07:24 81.27, 149.52 95.53 10/22/2016 05:08:15 81.27, 149.57 95.56 0.77 51
4 10/22/2016 05:58:03 -81.28, -42.54 84.39 10/22/2016 05:57:41 -81.29, -42.47 84.39 1.38 22
5 10/25/2016 00:41:46 81.28,-143.61 96.57 10/25/2016 00:42:28 81.29,-143.76 96.57 2.50 42
6 10
